Content
SEND FEEDBACK

Daily
Averages
Monthly
Summary
United States of America

DEDEDO, GUAM


Home > North America > United States > Guam
Elevation: 364 feet     Latitude: 13 33N     Longitude: 144 49E

WEATHER
 
SELECT A DAY
Number of Records: 213,928;   Date Range: 1/1/95 - 10/24/14
 
SHARE

PRINT THIS DATA

[ ← Previous Day ]
WEATHER ALMANAC - SEPTEMBER 14, 2013
[ Next Day → ]
[ °C ]   °F
Weather ElementAverageHighLow
Temperature81.8 °F87.8 °F (3:44 pm)77 °F (5:54 am)
Dewpoint76.1 °F78.8 °F (3:44 pm)73.4 °F (1:09 pm)
Humidity83.2 %96 % (5:54 am)74 % (2:54 pm)
Barometer29.80 in29.86 in (9:24 am)29.75 in (3:54 am)
Wind Speed4.3 mph18.4 mph (1:09 pm)
Weather ElementAverage
Visibility9.7 mi
Wind DirectionSSE (141.7 °)

Weather ElementTotal
Precipitation1.68 in
Cooling Degree Days17.4 (Base 65)
Growing Degree Days32.4 (Base 50)
Averaged from 29 records on September 14, 2013
WEATHER CONDITIONS BREAKOUT
WIND DIRECTION BREAKOUT
WEATHER BY HOUR - SEPTEMBER 14, 2013
[ °C ]   °F
Local TimeTemperatureDewpointHumidityBarometerVisibilityWind DirectionWind SpeedGust SpeedPrecipitationEventsConditions
1:54 AM79.0 °F75.9 °F90 %29.78 in10.0 miWSW (240°)3.5 mphClear
2:54 AM78.1 °F75.9 °F93 %29.76 in10.0 miCalmClear
3:54 AM78.1 °F75.9 °F93 %29.75 in10.0 miCalmClear
4:54 AM79.0 °F75.9 °F90 %29.75 in10.0 miCalmClear
5:54 AM77.0 °F75.9 °F96 %29.77 in10.0 miCalmClear
6:54 AM80.1 °F77.0 °F90 %29.80 in10.0 miNE (50°)3.5 mphClear
7:54 AM84.0 °F78.1 °F82 %29.82 in10.0 miWest (270°)3.5 mphClear
8:54 AM84.0 °F77.0 °F79 %29.84 in10.0 miWNW (290°)5.8 mphMostly Cloudy
9:24 AM78.8 °F75.2 °F89 %29.86 in7.0 miCalm0.54 inRainLight Rain
9:34 AM78.8 °F75.2 °F89 %29.86 in7.0 miENE (70°)5.8 mph0.57 inRainLight Rain
9:54 AM80.1 °F75.9 °F87 %29.84 in10.0 miEast (100°)4.6 mph0.57 inPartly Cloudy
10:54 AM84.0 °F77.0 °F79 %29.83 in10.0 miCalmClear
11:54 AM84.9 °F77.0 °F77 %29.82 in10.0 miSouth (170°)4.6 mphClear
12:54 PM84.9 °F77.0 °F77 %29.80 in10.0 miWest (260°)8.1 mphMostly Cloudy
1:09 PM78.8 °F73.4 °F83 %29.82 in10.0 miWest (270°)18.4 mph0.00 inRain-ThunderstormLight Thunderstorms and Rain
1:24 PM80.6 °F75.2 °F84 %29.81 in8.0 miWest (280°)10.4 mph0.00 inRainLight Rain
1:54 PM82.9 °F75.0 °F77 %29.78 in10.0 miSW (220°)8.1 mph0.00 inScattered Clouds
2:54 PM86.0 °F77.0 °F74 %29.76 in10.0 miWest (260°)5.8 mphPartly Cloudy
3:44 PM87.8 °F78.8 °F75 %29.78 in10.0 miVariable5.8 mphMostly Cloudy
3:54 PM87.1 °F78.1 °F74 %29.76 in10.0 miWest (280°)5.8 mphMostly Cloudy
4:08 PM84.2 °F77.0 °F79 %29.78 in10.0 miWest (270°)3.5 mphScattered Clouds
4:54 PM84.9 °F77.0 °F77 %29.75 in10.0 miWNW (290°)4.6 mphPartly Cloudy
5:54 PM82.9 °F75.0 °F77 %29.77 in10.0 miWNW (290°)4.6 mphPartly Cloudy
6:54 PM82.0 °F73.9 °F76 %29.78 in10.0 miWest (280°)3.5 mphPartly Cloudy
7:54 PM80.1 °F75.9 °F87 %29.80 in10.0 miCalmPartly Cloudy
8:54 PM81.0 °F75.0 °F82 %29.83 in10.0 miEast (90°)3.5 mphPartly Cloudy
9:54 PM82.9 °F75.9 °F79 %29.83 in10.0 miENE (70°)5.8 mphPartly Cloudy
10:54 PM82.0 °F77.0 °F85 %29.83 in10.0 miENE (60°)4.6 mphPartly Cloudy
11:54 PM77.0 °F75.0 °F94 %29.81 in10.0 miCalmPartly Cloudy
Hourly data recorded from PGUM, located miles away from Dededo, Guam







STORIES FROM OUR PARTNERS